sat.trackr.live / text

‹ back to catalog

STARLINK-32210

NORAD 60594 · 2024-150M

PAYLOAD ACTIVE UNKNOWN

§ Identity

Operator
Country
US
Launch date
2024-08-20
Launch site
AFETR
Launch vehicle
Mass (kg)
RCS (m²)

Purposes: comms

External: N2YO · Heavens-Above · Gunter

§ Orbital elements

Epoch: 2026-05-24T17:53:03.445728Z

Period
93.85 min
Inclination
53.1617°
Eccentricity
0.0001091
Mean motion
15.34388656 rev/d
Perigee alt
462.0 km
Apogee alt
463.5 km
Semi-major
6,840.9 km
B*
1.7275e-5
RAAN
313.1993°
Arg perigee
82.4709°
Mean anomaly
277.6418°
Rev number
9,969

§ Raw data

STARLINK-322101 60594U 24150M   26144.74517877  .00000207  00000+0  17275-4 0  99932 60594  53.1617 313.1993 0001091  82.4709 277.6418 15.34388656 99696

JSON: /api/v1/satellites/60594 · /tle

For live sub-satellite position, see the globe view (requires WebGL).

§ Visibility from observer

Set your observer location to see the next 7 days of passes ≥ 10°. The values pass through the URL so the page stays shareable.

No JS? Fill the form by hand. The geolocation button needs JavaScript.